{"data":{"norad_id":68556,"epoch":"2026-05-24T22:02:25.524672Z","epoch_age_seconds":92170,"freshness":"FRESH","line1":"1 68556U 26070Q   26144.91835098  .00019417  00000+0  58444-3 0  9994","line2":"2 68556  53.1591   7.9338 0000958  69.6260 290.4845 15.34393912  8232","mean_motion":15.34393912,"eccentricity":9.58e-5,"inclination_deg":53.1591,"raan_deg":7.9338,"arg_perigee_deg":69.626,"mean_anomaly_deg":290.4845,"bstar":0.00058444,"rev_number":823,"period_min":93.848130440184,"perigee_km":462.06598085742,"apogee_km":463.37668931442,"semimajor_km":6840.8583350859,"source":"CELESTRAK","updated_at":"2026-05-25T13:38:21.962516Z"}}